Showing default

ORBCOMM FM 17, 25413

Orbit data source: Space-Track

ORBCOMM FM 17, 25413 is a payload satellite owned by Orbcomm (US) in LEO that was launched on Sun, 02 Aug 1998 UTC via a PEGASUS XL/HAPS launch vehicle from the Pegasus Launch, Eastern Range Air Space (ERAS). Payload-class satellites include a variety of spacecraft equipped with specific instruments for various scientific and technological missions. These include communications satellites like Starlink; space stations such as the ISS; scientific satellites like the Hubble; Earth observation satellites from companies like Planet Labs, Umbra, and HawkEye 360; GPS; miniature CubeSats for education and research; and military/defense satellites.

Loading next visibility...
Identifier
25413, 1998-046A
Orbit
LEO
Country
Flag of USUS / ORB
Related business
Manufacturer
OSC-Germantown
Mission
Non-operational Commercial Communications
Bus & Motor
MICROSTAR, Unknown motor
Mass
42 kg wet, 42 kg dry
Launch date (UTC)
1998-08-02 (27 years ago)
Launch vehicle
PEGASUS XL/HAPS
Launch site
Pegasus Launch, Eastern Range Air Space (ERAS)
Object type
Payload
Rocket body
Debris
Shape & HBR
Cyl + 2 Pan, 4.2 m
Radar Cross Section
1.484 m², Medium (>0.1 m² and < 1m²)

Expand to show TLE details & history
Last TLE update: 1 day ago

TLE from 1 day ago
0 ORBCOMM FM 17
1 25413U 98046A   25293.55557623  .00001714  00000-0  64075-3 0  9999
2 25413  44.9955  25.8233 0003014 159.9899 200.1066 14.35366873421181
Epoch: 2025-10-20T13:20Z
TLE epoch observation values (Epoch: 2025-10-20T13:20:01.786Z)
Latitude
-0.00006°
Longitude
156.5596°
Altitude
775.87 km
Speed
7.467 km/s
True Right ascension
01h 43m 17s
True Declination
0° 00' 00"
Sunlit
Object was in full shadow at epoch
Visualization orbit readout
Latitude
Unknown
Longitude
Unknown
Altitude
Unknown
Speed
Unknown
Apparent Right ascension
Unknown
Apparent Declination
Unknown
Sunlit
N/A
Visualization observer readout
Local Sidereal Time
09:58:36
Azimuth
Unknown
Elevation
Unknown
Doppler factor
Unknown
Orbital elements
Apogee altitude
777.548 km
Perigee altitude
773.236 km
Semi-major axis
7,153.529 km
Eccentricity
0.0003
Inclination
44.9955°
RAAN
25.8233°
Arg. of periapsis
159.9899°
True anomaly
200.09473°
Mean anomaly
200.1066°
Eccentric anomaly
200.10067°
Mean motion
3.58726 °/min
Orbital period
100.36 mins
BSTAR
0.00064075
Loading maneuver chart data...
Computing Atmospheric mass density...

Documentation

Showing up to 5 results
|